Regional Weather Roundup
Issued by NWS

Home | Current Version | Previous Version | Graphics & Text | Print | Product List | Glossary On
Versions: 1 2 3 4 5 6 7 8 9 10 11 12 13 14 15 16 17 18 19 20 21 22 23 24 25 26 27 28 29 30 31 32 33 34 35 36 37 38 39 40 41 42 43 44 45 46 47 48 49 50
000
ASUS43 KTOP 040708
RWRKS

WEATHER ROUNDUP FOR KANSAS
NATIONAL WEATHER SERVICE GOODLAND KS
100 AM CST WED MAR 04 2015

NOTE:  "FAIR" INDICATES FEW OR NO CLOUDS BELOW 12,000 FEET WITH NO
SIGNIFICANT WEATHER AND/OR OBSTRUCTIONS TO VISIBILITY.

KSZ001>006-013>018-027>032-041>047-040800-
NORTHWEST KANSAS

CITY           SKY/WX    TMP DP  RH WIND       PRES   REMARKS
GOODLAND       CLOUDY    18  13  80 NE17      30.03R WCI   3
HAYS           CLOUDY    25   1  36 N22       30.09F WCI  10
HILL CITY      CLOUDY    20  13  74 NE15      30.13R WCI   6
RUSSELL        CLOUDY    23   7  50 N21G26    30.10R WCI   8
$$

KSZ061>065-074>080-084>089-040800-
SOUTHWEST KANSAS

CITY           SKY/WX    TMP DP  RH WIND       PRES   REMARKS
DODGE CITY     CLOUDY    26  13  57 NE20      30.02R WCI  12
ELKHART          N/A     28  17  63 NE12        N/A  WCI  18
GARDEN CITY    CLOUDY    25  14  63 NE21      30.00R WCI  11
GREAT BEND     CLOUDY    27   5  39 NE22      30.08S WCI  12
LIBERAL        CLOUDY    27  19  74 E14       29.99S WCI  15
PRATT          CLOUDY    28  12  50 NE17G26   30.04S WCI  16
$$

KSZ066>073-081>083-090>101-040800-
SOUTHEAST KANSAS

CITY           SKY/WX    TMP DP  RH WIND       PRES   REMARKS
CHANUTE        CLOUDY    33  26  75 N16       30.01R WCI  23
COFFEYVILLE    CLOUDY    36  29  75 N16       29.98S WCI  26
HUTCHINSON     CLOUDY    28   9  44 N17G31    30.06R WCI  16
MEDICINE LODGE   N/A     31  20  63 N18G24    30.03R WCI  19
NEWTON         CLOUDY    28  10  47 N21G28    30.06R WCI  15
PARSONS        CLOUDY    35  30  82 N9        30.00S
WICHITA INTL   CLOUDY    32  19  58 N17G23    30.04R WCI  21
WICHITA JABRA  CLOUDY    30  19  63 N13       30.04R WCI  20
WICHITA MCCONL CLOUDY    31  19  62 NE22      30.03R WCI  18
WINFIELD       MOCLDY    33  23  66 NE15      30.01S WCI  23
$$

KSZ007>012-019>026-033>040-048>060-102>105-040800-
NORTHEAST KANSAS

CITY           SKY/WX    TMP DP  RH WIND       PRES   REMARKS
CONCORDIA      CLOUDY    22   7  52 N17G24    30.17R WCI   8
EMPORIA        CLOUDY    29  19  66 N16G22    30.05S WCI  17
LAWRENCE       PTCLDY    26  16  65 N14       30.11R WCI  14
MANHATTAN      CLOUDY    24   9  52 N13G20    30.15R WCI  12
MARYSVILLE     CLOUDY    21   9  58 N14G23    30.17R WCI   8
OLATHE IND     PTCLDY    27  20  75 N13       30.07R WCI  16
OLATHE EXE     MOCLDY    29  18  63 N13       30.06R WCI  19
SALINA         CLOUDY    26   7  44 N25G31    30.14R WCI  11
TOPEKA BILLARD PTCLDY    25  11  55 N16G25    30.13R WCI  12
TOPEKA FORBES  PTCLDY    27  11  51 N16       30.10R WCI  15
$$



USA.gov is the U.S. government's official web portal to all federal, state and local government web resources and services.